• In Belarus
  • List of Countries
  • For 7 days
  • Water Temperature
  • Satellite Maps
  • Weather Map
  • Weather Widgets
  • user-avatar
    Login

    Hourly Weather Janowek

    Today, 16 July, Monday

    Time Temperature Precipitation Wind Pressure Humidity
    00:00 +17°C° 0 mm 3 mps 742 mmHg 94%
    01:00 +17°C° 0 mm 3 mps 742 mmHg 96%
    02:00 +16°C° 0.4 mm 3 mps 742 mmHg 97%
    03:00 +16°C° 0.4 mm 3 mps 741 mmHg 97%
    04:00 +16°C° 0.4 mm 3 mps 741 mmHg 97%
    05:00 +17°C° 0.4 mm 3 mps 741 mmHg 95%
    06:00 +18°C° 0.4 mm 3 mps 741 mmHg 94%
    07:00 +18°C° 0 mm 4 mps 741 mmHg 91%
    08:00 +20°C° 0.4 mm 4 mps 741 mmHg 87%
    09:00 +21°C° 0.4 mm 4 mps 741 mmHg 83%
    10:00 +22°C° 0.4 mm 4 mps 740 mmHg 79%
    11:00 +23°C° 0.5 mm 4 mps 740 mmHg 74%
    12:00 +25°C° 0.5 mm 4 mps 740 mmHg 68%
    13:00 +24°C° 0 mm 3 mps 740 mmHg 69%
    14:00 +25°C° 0.4 mm 3 mps 740 mmHg 68%
    15:00 +25°C° 0.4 mm 3 mps 740 mmHg 67%
    16:00 +25°C° 0.4 mm 3 mps 740 mmHg 67%
    17:00 +24°C° 0.3 mm 2 mps 740 mmHg 73%
    18:00 +23°C° 0.3 mm 2 mps 739 mmHg 79%
    19:00 +21°C° 0.3 mm 2 mps 739 mmHg 85%
    20:00 +20°C° 0.1 mm 2 mps 739 mmHg 87%
    21:00 +19°C° 0.1 mm 2 mps 739 mmHg 90%
    22:00 +18°C° 0.1 mm 2 mps 739 mmHg 93%
    23:00 +18°C° 0.3 mm 2 mps 739 mmHg 94%

    Tomorrow, 17 July, Tuesday

    Time Temperature Precipitation Wind Pressure Humidity
    00:00 +19°C° 0.3 mm 1 mps 739 mmHg 94%
    01:00 +19°C° 0.3 mm 1 mps 739 mmHg 95%
    02:00 +19°C° 0.3 mm 1 mps 739 mmHg 95%
    03:00 +18°C° 0.3 mm 2 mps 738 mmHg 95%
    04:00 +17°C° 0.3 mm 2 mps 738 mmHg 96%
    05:00 +18°C° 0.2 mm 2 mps 738 mmHg 93%
    06:00 +19°C° 0.2 mm 2 mps 738 mmHg 90%
    07:00 +20°C° 0.2 mm 2 mps 738 mmHg 87%
    08:00 +21°C° 0.5 mm 2 mps 738 mmHg 82%
    09:00 +24°C° 0.5 mm 2 mps 738 mmHg 77%
    10:00 +25°C° 0.5 mm 2 mps 738 mmHg 72%
    11:00 +25°C° 0.8 mm 3 mps 738 mmHg 72%
    12:00 +25°C° 0.8 mm 3 mps 738 mmHg 72%
    13:00 +25°C° 0.8 mm 3 mps 738 mmHg 73%
    14:00 +25°C° 0.6 mm 3 mps 737 mmHg 76%
    15:00 +24°C° 0.6 mm 3 mps 737 mmHg 79%
    16:00 +22°C° 0.6 mm 4 mps 737 mmHg 83%
    17:00 +22°C° 0.3 mm 3 mps 737 mmHg 86%
    18:00 +21°C° 0.3 mm 3 mps 737 mmHg 89%
    19:00 +20°C° 0.3 mm 2 mps 737 mmHg 92%
    20:00 +20°C° 1.2 mm 2 mps 738 mmHg 93%
    21:00 +20°C° 1.2 mm 2 mps 738 mmHg 95%
    22:00 +19°C° 1.2 mm 3 mps 738 mmHg 96%
    23:00 +19°C° 0.6 mm 3 mps 738 mmHg 96%

    Day after tomorrow, 18 July, Wednesday

    Time Temperature Precipitation Wind Pressure Humidity
    00:00 +19°C° 0.6 mm 3 mps 738 mmHg 96%
    01:00 +19°C° 0.6 mm 3 mps 738 mmHg 96%
    02:00 +19°C° 0.1 mm 3 mps 738 mmHg 96%
    03:00 +19°C° 0.1 mm 3 mps 738 mmHg 97%
    04:00 +19°C° 0.1 mm 4 mps 738 mmHg 97%
    05:00 +20°C° 0.2 mm 4 mps 738 mmHg 95%
    06:00 +20°C° 0.2 mm 4 mps 738 mmHg 93%
    07:00 +21°C° 0.2 mm 4 mps 738 mmHg 91%
    08:00 +22°C° 0.6 mm 4 mps 738 mmHg 87%
    09:00 +23°C° 0.6 mm 4 mps 738 mmHg 83%
    10:00 +26°C° 0.6 mm 4 mps 738 mmHg 80%
    11:00 +26°C° 0.7 mm 4 mps 738 mmHg 78%
    12:00 +27°C° 0.7 mm 3 mps 738 mmHg 75%
    13:00 +27°C° 0.7 mm 3 mps 738 mmHg 73%
    14:00 +27°C° 1.1 mm 3 mps 738 mmHg 76%
    15:00 +27°C° 1.1 mm 4 mps 738 mmHg 78%
    16:00 +26°C° 1.1 mm 4 mps 738 mmHg 81%
    17:00 +26°C° 1 mm 4 mps 739 mmHg 83%
    18:00 +25°C° 1 mm 4 mps 739 mmHg 86%
    19:00 +23°C° 1 mm 4 mps 739 mmHg 88%
    20:00 +22°C° 0.6 mm 4 mps 739 mmHg 90%
    21:00 +22°C° 0.6 mm 3 mps 739 mmHg 91%
    22:00 +21°C° 0.6 mm 3 mps 739 mmHg 93%
    23:00 +21°C° 0.4 mm 3 mps 740 mmHg 93%

    19 July, Thursday

    Time Temperature Precipitation Wind Pressure Humidity
    00:00 +21°C° 0.4 mm 3 mps 740 mmHg 94%
    01:00 +20°C° 0.4 mm 3 mps 740 mmHg 94%
    02:00 +20°C° 0.3 mm 3 mps 740 mmHg 95%
    03:00 +20°C° 0.3 mm 3 mps 740 mmHg 95%
    04:00 +19°C° 0.3 mm 3 mps 740 mmHg 96%
    05:00 +20°C° 0.1 mm 3 mps 740 mmHg 93%
    06:00 +21°C° 0.1 mm 3 mps 741 mmHg 90%
    07:00 +22°C° 0.1 mm 4 mps 741 mmHg 87%
    08:00 +23°C° 0.1 mm 4 mps 741 mmHg 78%
    09:00 +26°C° 0.1 mm 4 mps 741 mmHg 69%
    10:00 +27°C° 0.1 mm 4 mps 741 mmHg 59%
    11:00 +28°C° 0.1 mm 4 mps 741 mmHg 56%
    12:00 +28°C° 0.1 mm 4 mps 741 mmHg 53%
    13:00 +29°C° 0.1 mm 4 mps 741 mmHg 50%
    14:00 +29°C° 0.1 mm 4 mps 741 mmHg 53%
    15:00 +28°C° 0.1 mm 4 mps 741 mmHg 55%
    16:00 +28°C° 0.1 mm 5 mps 741 mmHg 58%
    17:00 +27°C° 0.2 mm 4 mps 741 mmHg 64%
    18:00 +25°C° 0.2 mm 4 mps 741 mmHg 71%
    19:00 +23°C° 0.2 mm 4 mps 741 mmHg 78%
    20:00 +22°C° 0.1 mm 4 mps 741 mmHg 81%
    21:00 +21°C° 0.1 mm 3 mps 741 mmHg 84%
    22:00 +20°C° 0.1 mm 3 mps 742 mmHg 87%
    23:00 +20°C° 0 mm 3 mps 742 mmHg 89%

    20 July, Friday

    Time Temperature Precipitation Wind Pressure Humidity
    00:00 +19°C° 0 mm 3 mps 742 mmHg 90%
    01:00 +19°C° 0 mm 3 mps 742 mmHg 92%
    02:00 +18°C° 0.1 mm 4 mps 742 mmHg 92%
    03:00 +18°C° 0.1 mm 4 mps 742 mmHg 93%
    04:00 +18°C° 0.1 mm 4 mps 742 mmHg 93%
    05:00 +18°C° 0.2 mm 4 mps 742 mmHg 91%
    06:00 +19°C° 0.2 mm 4 mps 742 mmHg 89%
    07:00 +19°C° 0.2 mm 4 mps 742 mmHg 87%
    08:00 +20°C° 0 mm 4 mps 742 mmHg 84%
    09:00 +21°C° 0 mm 4 mps 742 mmHg 80%
    10:00 +22°C° 0 mm 4 mps 742 mmHg 76%
    11:00 +23°C° 0 mm 5 mps 742 mmHg 70%
    12:00 +25°C° 0 mm 5 mps 742 mmHg 64%
    13:00 +27°C° 0 mm 5 mps 742 mmHg 57%
    14:00 +27°C° 0 mm 5 mps 742 mmHg 58%
    15:00 +27°C° 0 mm 5 mps 742 mmHg 58%
    16:00 +27°C° 0 mm 5 mps 742 mmHg 58%
    17:00 +26°C° 0 mm 5 mps 741 mmHg 64%
    18:00 +23°C° 0 mm 4 mps 741 mmHg 69%
    19:00 +22°C° 0 mm 3 mps 741 mmHg 75%
    20:00 +21°C° 0 mm 3 mps 742 mmHg 78%
    21:00 +20°C° 0 mm 3 mps 742 mmHg 81%
    22:00 +19°C° 0 mm 3 mps 742 mmHg 84%
    23:00 +18°C° 0 mm 3 mps 742 mmHg 86%

    21 July, Saturday

    Time Temperature Precipitation Wind Pressure Humidity
    00:00 +18°C° 0 mm 3 mps 742 mmHg 89%
    01:00 +17°C° 0 mm 3 mps 742 mmHg 91%
    02:00 +17°C° 0 mm 2 mps 742 mmHg 92%
    03:00 +16°C° 0 mm 2 mps 742 mmHg 92%
    04:00 +16°C° 0 mm 2 mps 742 mmHg 93%
    05:00 +17°C° 0 mm 2 mps 742 mmHg 87%
    06:00 +19°C° 0 mm 2 mps 742 mmHg 81%
    07:00 +20°C° 0 mm 2 mps 742 mmHg 75%
    08:00 +22°C° 0 mm 3 mps 742 mmHg 69%
    09:00 +24°C° 0 mm 3 mps 742 mmHg 63%
    10:00 +25°C° 0 mm 3 mps 742 mmHg 58%
    11:00 +26°C° 0 mm 3 mps 742 mmHg 54%
    12:00 +26°C° 0 mm 3 mps 742 mmHg 51%
    13:00 +27°C° 0 mm 3 mps 742 mmHg 48%
    14:00 +27°C° 0 mm 3 mps 741 mmHg 47%
    15:00 +27°C° 0 mm 3 mps 741 mmHg 47%
    16:00 +27°C° 0 mm 3 mps 741 mmHg 47%
    17:00 +25°C° 0 mm 3 mps 741 mmHg 53%
    18:00 +24°C° 0 mm 2 mps 741 mmHg 58%
    19:00 +21°C° 0 mm 2 mps 741 mmHg 64%
    20:00 +21°C° 0 mm 1 mps 741 mmHg 64%
    21:00 +20°C° 0 mm 1 mps 741 mmHg 64%
    22:00 +19°C° 0 mm 1 mps 741 mmHg 65%
    23:00 +19°C° 0 mm 1 mps 741 mmHg 66%
    Show more